Temp
16 16 15 15 15 15 15 14 13 12 12 11 11 10 10 10 10 10 9 9 8 7
16 16 15 15 15 15 13 13 12 11 11 10 10 10 9 9 9 8 8 8 7 6
16 16 16 15 15 14 13 12 11 10 10 10 9 9 9 8 7 7 7 6 6 5
15 15 14 14 13 13 12 11 10 10 10 10 9 8 8 7 7 7 6 6 5 4
14 14 14 13 12 11 11 10 10 9 9 8 8 8 8 7 6 6 5 4 4 4
12 12 12 11 10 10 9 9 8 8 8 7 7 7 6 6 5 5 4 4 4 3
9 10 9 8 8 8 8 8 7 6 6 6 6 6 5 5 4 4 3 3 3 2
6 6 6 5 5 6 6 6 5 5 5 5 5 5 5 4 4 3 3 2 2 2
4 5 5 5 5 4 5 4 5 5 4 3 3 3 2 3 3 3 2 2 1 1
3 2 3 3 4 3 3 3 3 4 3 3 2 1 1 1 2 2 1 1 0 0
2 2 2 2 3 3 3 3 3 2 2 1 1 0 1 1 1 1 -0 -1 -1 -1
2 2 2 2 2 3 3 2 2 1 1 1 0 -0 -1 0 0 -0 -1 -1 -2 -2
2 2 2 2 2 2 2 1 1 0 0 0 -0 -1 -2 -1 -1 -2 -2 -2 -2 -3
1 2 2 2 1 1 1 0 0 -0 -1 -1 -1 -2 -3 -3 -3 -3 -3 -4 -4 -4
Height
825 830 833 837 842 846 849 853 857 859 862 863 865 866 867 868 870 870 871 872 873 875
820 824 829 834 838 841 846 850 854 857 860 862 865 867 868 869 870 872 871 871 873 874
815 820 824 829 833 837 842 847 851 855 858 861 864 866 868 870 872 873 873 873 873 875
810 815 820 824 829 833 838 844 848 852 855 858 862 866 867 870 871 872 873 873 872 874
805 809 814 820 825 831 835 841 845 850 853 858 859 863 866 866 872 871 872 873 872 873
800 806 811 816 821 826 831 838 844 849 854 855 858 861 865 867 870 869 873 871 872 872
795 800 807 813 817 824 828 833 841 849 853 858 858 859 865 866 869 869 872 871 871 870
794 798 803 811 817 825 829 835 841 845 854 858 859 859 862 867 866 869 869 869 869 868
794 799 803 810 818 826 828 837 843 847 853 857 860 859 863 864 865 866 867 868 867 865
793 800 805 813 815 827 832 836 844 846 852 856 858 863 861 863 865 865 866 866 864 863
791 801 806 813 819 823 832 836 842 847 851 856 859 860 861 863 863 865 864 863 862 860
793 800 805 814 819 825 832 835 842 848 852 854 857 859 861 862 862 863 862 862 861 859
793 800 807 814 819 827 833 838 844 848 851 853 856 859 861 860 861 861 860 860 859 858
795 801 808 815 822 828 834 838 842 846 851 853 855 857 859 860 859 859 859 858 856 854
Wind_Speed
32 30 28 28 28 26 23 20 18 16 13 10 9 9 9 9 8 8 7 7 6 5
36 33 30 30 30 28 25 22 20 17 15 12 11 10 9 8 8 7 8 7 5 4
37 35 33 33 32 29 27 25 22 19 16 14 13 12 10 9 9 6 7 7 6 5
35 35 33 33 31 31 29 26 24 21 19 18 15 12 11 9 9 6 6 5 5 5
35 36 34 32 32 32 30 28 26 23 21 18 17 14 11 10 7 6 5 5 5 5
35 34 34 33 34 34 33 29 25 22 20 20 17 15 11 9 7 7 4 6 5 6
34 35 34 33 34 34 34 33 27 20 18 17 16 15 11 9 6 6 4 5 5 7
32 33 33 33 32 34 31 25 23 23 20 16 14 13 10 7 6 3 3 4 6 8
30 30 33 35 31 28 28 25 24 23 20 16 13 10 9 6 4 2 4 6 8 10
30 31 33 35 34 29 26 27 25 24 20 16 13 10 8 5 2 3 5 8 10 12
33 34 34 31 33 32 31 29 25 23 18 17 13 9 6 3 2 4 5 8 11 14
35 36 35 35 34 33 30 27 25 22 19 15 12 7 2 1 3 4 7 10 13 14
35 36 35 36 34 32 29 27 24 20 15 12 10 6 4 3 5 7 10 13 14 16
35 37 36 35 33 31 28 25 22 18 14 10 7 5 5 5 6 8 11 14 18 19
Wind_Direction
210 206 204 200 196 198 200 198 191 189 188 184 171 157 149 145 132 123 112 101 91 71
210 205 203 203 202 204 198 191 188 186 180 171 162 156 151 142 133 131 118 106 97 82
210 209 208 207 205 200 192 188 183 178 173 166 160 156 156 144 128 124 108 104 94 72
207 206 208 204 200 193 189 185 181 177 172 166 160 153 148 139 136 129 112 95 75 56
205 202 200 199 195 191 185 181 180 174 168 166 160 157 153 140 136 117 99 80 62 40
197 196 193 192 188 186 180 173 168 167 167 161 156 151 147 137 129 106 91 62 34 13
189 188 186 184 182 179 173 164 161 158 162 163 153 146 143 134 129 103 76 46 16 357
183 180 178 172 168 163 158 161 165 160 165 158 150 141 140 143 116 111 54 8 347 348
173 169 164 161 158 162 155 154 160 157 158 151 142 130 141 140 130 57 355 341 343 347
159 154 156 159 154 162 157 158 160 154 154 146 134 144 135 128 88 7 349 348 346 342
155 155 158 157 158 153 160 155 152 151 147 144 135 135 132 130 20 355 355 351 348 342
157 153 154 159 160 159 156 149 150 151 148 143 134 142 134 66 4 355 355 351 348 346
163 159 160 161 157 154 153 148 146 143 142 141 137 127 92 25 10 1 353 344 345 346
161 161 161 156 154 152 149 145 144 139 139 139 135 114 83 56 15 12 343 341 342 344